Weather in Elanets

Ukraine / Mykolaiv District     47°41′45″N   31°51′14″E
temp.,
°C
wind,
m/s
gust,
m/s
humid.,
%
clouds,
%
prec.,
mm/h
press.,
hPa
HPBL,
m
30 november, tue
tue3023:00+8wnw8137782 0.0 995728
02:00+5w611702 0.0 998544
05:00+3w510754 0.0 1000504
08:00+2w511725 0.0 1002553
11:00+4nw5760100 0.0 1002740
14:00+5nw4555100 0.0 10011002
17:00+3nw4861100 0.0 1000319
20:00+2nw51165100 0.0 1000458
1 december, wed
wed123:000wnw511710 0.0 1002338
02:00−1wsw49760 0.0 1003194
05:000sw71467100 0.0 1001465
08:00+1wsw61376100 0.3 1001895
11:00+4w7125683 0.4 10011176
14:00+4wnw8126598 0.4 10021356
17:00+2wnw6118112 0.1 1005619
20:000wnw38835 0.1 1008192
2 december, thu
thu223:000w3379100 0.0 100961
02:00−1sw3482100 0.0 101160
05:00−1ssw38838 0.0 1010160
08:000s41384100 0.0 1010280
11:00+7ssw714691 0.0 1009729
14:00+9ssw611615 0.0 1007762
17:00+6ssw51268100 0.0 1008256
20:00+5s5139395 0.0 1008330
3 december, fri
fri323:00+6s4109799 0.0 1008252
02:00+5s51193100 0.0 1007259
05:00+8s71594100 0.0 1006643
08:00+9s7158869 0.0 1006804
11:00+11s8147764 0.0 1006824
14:00+12ssw71368100 0.0 1005781
17:00+8s51084100 0.0 1006279
20:00+7ssw4991100 0.0 1007196
4 december, sat
sat423:00+6nw3681100 0.0 1009140
02:00+4n5892100 0.0 1011350
05:00+3nne4897100 0.0 1012379
08:00+3nne5896100 0.0 1012387
11:00+3ne4795100 0.2 1013382
14:00+4ne5789100 0.4 1011407
17:00+3ne61092100 1.3 1011419
20:00+3ne61192100 2.9 1010422